Riverside March, CA

8:35 PM PDT on April 21, 2018 (GMT -0700)
March Air Reserve Base

Weather History for KRIV - April, 2014

Change the Weather History Date:

Sunday, April 13, 2014

  Actual Average Record
Temperature  
Mean Temperature 60 °F -  
Max Temperature 69 °F 70 °F 96 °F (2002)
Min Temperature 51 °F 43 °F 39 °F (1998)
Degree Days  
Heating Degree Days 5    
Growing Degree Days 10 (Base 50)    
Moisture  
Dew Point 47 °F    
Average Humidity 73    
Maximum Humidity 88    
Minimum Humidity 44    
Precipitation  
Precipitation 0.00 in - - ()
Sea Level Pressure  
Sea Level Pressure 29.96 in    
Wind  
Wind Speed 5 mph (NW)    
Max Wind Speed 10 mph    
Max Gust Speed 16 mph    
Visibility 10 miles    
Events      
Averages and records for this station are not official NWS values.
T = Trace of Precipitation, MM = Missing Value Source: NWS Daily Summary

Daily Weather History Graph

Daily Weather History Graph

Search for Another Location

Airport or City:

Astronomy

Apr. 13, 2014 Rise Set
Actual Time 6:20 AM PDT 7:18 PM PDT
Civil Twilight 5:55 AM PDT 7:44 PM PDT
Nautical Twilight 5:24 AM PDT 8:14 PM PDT
Astronomical Twilight 4:53 AM PDT 8:46 PM PDT
Moon 6:04 PM PDT (4/13) 5:17 AM PDT (4/13)
Length of Visible Light 13h 49m
Length of Day
12h 58m
Waxing Gibbous, 97% of the Moon is Illuminated
Apr 13
Waxing Gibbous
Apr 15
Full
Apr 22
Last Quarter
Apr 28
New
May 6
First Quarter

Hourly Weather History & Observations

Time (PDT) Temp. Dew Point Humidity Pressure Visibility Wind Dir Wind Speed Gust Speed Precip Events Conditions
12:58 AM 53.8 °F 46.2 °F 76% 29.96 in 10.0 mi SSE 5.8 mph - N/A   Overcast
1:58 AM 53.8 °F 45.7 °F 74% 29.94 in 10.0 mi SSE 5.8 mph - N/A   Overcast
2:58 AM 53.4 °F 46.9 °F 79% 29.93 in 10.0 mi NNW 1.2 mph - N/A   Overcast
3:58 AM 52.9 °F 46.9 °F 80% 29.93 in 10.0 mi WNW 4.6 mph - N/A   Overcast
4:13 AM 51.8 °F 46.4 °F 82% 29.95 in 10.0 mi NW 4.6 mph - N/A   Overcast
4:23 AM 53.6 °F 46.4 °F 77% 29.94 in 10.0 mi NW 5.8 mph - N/A   Overcast
4:38 AM 53.6 °F 46.4 °F 77% 29.94 in 10.0 mi NNW 5.8 mph - N/A   Overcast
4:53 AM 51.8 °F 46.4 °F 82% 29.94 in 10.0 mi NW 5.8 mph - N/A   Overcast
4:58 AM 52.5 °F 47.1 °F 82% 29.92 in 10.0 mi NW 5.8 mph - N/A   Overcast
5:25 AM 51.8 °F 48.2 °F 88% 29.94 in 10.0 mi West 3.5 mph - N/A   Overcast
5:55 AM 51.8 °F 46.4 °F 82% 29.95 in 10.0 mi NW 4.6 mph - N/A   Overcast
5:58 AM 52.2 °F 46.9 °F 82% 29.94 in 10.0 mi NW 4.6 mph - N/A   Overcast
6:13 AM 51.8 °F 46.4 °F 82% 29.95 in 10.0 mi NW 4.6 mph - N/A   Overcast
6:28 AM 51.8 °F 46.4 °F 82% 29.95 in 10.0 mi NW 4.6 mph - N/A   Overcast
6:33 AM 51.8 °F 46.4 °F 82% 29.95 in 10.0 mi NW 4.6 mph - N/A   Overcast
6:43 AM 51.8 °F 46.4 °F 82% 29.96 in 10.0 mi NW 3.5 mph - N/A   Overcast
6:48 AM 51.8 °F 46.4 °F 82% 29.96 in 10.0 mi NW 4.6 mph - N/A   Overcast
6:52 AM 51.8 °F 46.4 °F 82% 29.96 in 10.0 mi NW 4.6 mph - N/A   Overcast
6:58 AM 52.2 °F 46.6 °F 81% 29.95 in 10.0 mi WNW 3.5 mph - N/A   Overcast
7:23 AM 51.8 °F 46.4 °F 82% 29.97 in 10.0 mi WNW 3.5 mph - N/A   Overcast
7:28 AM 51.8 °F 46.4 °F 82% 29.97 in 10.0 mi WNW 4.6 mph - N/A   Overcast
7:58 AM 52.5 °F 45.7 °F 78% 29.97 in 10.0 mi NW 2.3 mph - N/A   Overcast
8:48 AM 53.6 °F 46.4 °F 77% 29.98 in 10.0 mi NW 4.6 mph - N/A   Overcast
8:53 AM 53.6 °F 46.4 °F 77% 29.98 in 10.0 mi WNW 3.5 mph - N/A   Overcast
8:58 AM 54.1 °F 45.9 °F 74% 29.97 in 10.0 mi NW 1.2 mph - N/A   Overcast
9:58 AM 55.9 °F 45.7 °F 68% 29.99 in 10.0 mi Variable 1.2 mph - N/A   Overcast
10:58 AM 57.7 °F 45.5 °F 64% 30.00 in 10.0 mi Variable 1.2 mph - N/A   Overcast
11:33 AM 59.0 °F 44.6 °F 59% 30.01 in 10.0 mi Variable 1.2 mph - N/A   Overcast
11:58 AM 60.4 °F 45.5 °F 58% 29.99 in 10.0 mi Calm Calm - N/A   Overcast
12:58 PM 64.0 °F 45.7 °F 51% 29.98 in 10.0 mi West 8.1 mph - N/A   Mostly Cloudy
1:58 PM 66.7 °F 45.7 °F 47% 29.96 in 10.0 mi Variable 5.8 mph - N/A   Clear
2:58 PM 69.1 °F 46.0 °F 44% 29.94 in 10.0 mi North 5.8 mph - N/A   Clear
3:58 PM 69.3 °F 47.1 °F 45% 29.93 in 10.0 mi NW 9.2 mph - N/A   Clear
4:58 PM 69.1 °F 46.6 °F 45% 29.92 in 10.0 mi NW 10.4 mph 16.1 mph N/A   Clear
5:58 PM 67.6 °F 47.5 °F 48% 29.92 in 10.0 mi NW 9.2 mph - N/A   Clear
6:58 PM 63.9 °F 48.2 °F 57% 29.93 in 10.0 mi WNW 10.4 mph - N/A   Clear
7:58 PM 59.9 °F 48.2 °F 65% 29.95 in 10.0 mi WNW 8.1 mph - N/A   Clear
8:58 PM 57.4 °F 48.6 °F 72% 29.99 in 10.0 mi NW 6.9 mph - N/A   Clear
9:58 PM 54.3 °F 48.0 °F 79% 30.02 in 10.0 mi NNW 3.5 mph - N/A   Clear
10:58 PM 52.5 °F 47.7 °F 84% 30.03 in 10.0 mi WNW 1.2 mph - N/A   Clear
11:58 PM 51.4 °F 47.3 °F 86% 30.03 in 10.0 mi WNW 4.6 mph - N/A   Clear